Погода в Флорищах

Россия / Владимирская область     56°18′10″N   39°13′14″E
темп.,
°C
ветер,
м/с
пор.,
м/с
влажн.,
%
обл.,
%
осадки,
мм/ч
давл.,
гПа
погр.,
м
5 августа, чт
чт500:00+14з117099 0.0 101712
03:00+13юз117413 0.0 101711
06:00+13в117812 0.0 101815
09:00+20ююв125357 0.0 1017545
12:00+23ююв2243100 0.0 10171519
15:00+24ююв2337100 0.0 10162509
18:00+19ююз4964100 0.1 1016477
21:00+14всв3896100 1.7 1015240
6 августа, пт
пт600:00+15вюв41292100 0.5 1014317
03:00+13в2596100 0.7 1013106
06:00+14юв1394100 0.1 1012111
09:00+18ююв2683100 0.1 1012373
12:00+19ю3685100 0.6 1013487
15:00+20ююз2690100 3.6 1012275
18:00+17юв1199100 6.9 101229
21:00+17вюв2699100 7.8 1012220
7 августа, сб
сб700:00+16всв3119799 0.1 1011312
03:00+15в41098100 0.1 1011284
06:00+15в379897 2.0 1010264
09:00+19вюв358699 3.1 1010369
12:00+24ююв4866100 0.1 1010660
15:00+26ю365464 0.2 10101028
18:00+24ююв41162100 0.0 1010641
21:00+20вюв3117496 0.1 1010231
8 августа, вс
вс800:00+17ююв2108099 0.0 1010232
03:00+16ю268846 0.0 101198
06:00+17ююз2596100 0.3 1012146
09:00+21зюз2483100 0.4 1013636
12:00+21зюз2376100 0.0 1014237
15:00+23юз3452100 0.0 10141165
18:00+22юз245898 0.0 1015211
21:00+17зсз248523 0.0 101776
9 августа, пн
пн900:00+15зсз11910 0.0 101711
03:00+14з11935 0.0 101811
06:00+15з12885 0.0 101859
09:00+21зюз23625 0.0 1019589
12:00+25зюз234816 0.0 10181493
15:00+26зсз22421 0.0 10181975
18:00+25ссз11550 0.0 101746
21:00+19всв11727 0.0 101811